Regional Weather Roundup
Issued by NWS Columbia, SC

Current Version | Previous Version | Text Only | Print | Product List | Glossary On
Versions: 1 2 3 4 5 6 7 8 9 10 11 12 13 14 15 16 17 18 19 20 21 22 23 24 25 26 27 28 29 30 31 32 33 34 35 36 37 38 39 40 41 42 43 44 45 46 47 48 49 50
000
ASUS42 KCAE 230310
RWRCAE
REGIONAL WEATHER ROUNDUP
NATIONAL WEATHER SERVICE COLUMBIA SC
1100 PM EDT FRI MAY 22 2015

NOTE: "FAIR" INDICATES FEW OR NO CLOUDS BELOW 12,000 FEET WITH NO
SIGNIFICANT WEATHER AND/OR OBSTRUCTIONS TO VISIBILITY.

NOT ALL STATIONS ARE QUALITY CONTROLLED BY THE NATIONAL
WEATHER SERVICE. USE DATA WITH CAUTION...ESPECIALLY
DEWPOINT OBSERVATIONS.

SCZ001>056-GAZ040-063>065-077-230400-
...UPSTATE SOUTH CAROLINA...

CITY           SKY/WX    TMP DP  RH WIND       PRES   REMARKS
ANDERSON       CLEAR     62  53  72 CALM      30.27R
LIBERTY        CLEAR     58  52  81 E3        30.28R
SPARTANBURG    CLEAR     59  50  72 CALM      30.27R
CLEMSON        CLEAR     68  50  52 CALM      30.28R
GREENVILLE     CLEAR     68  41  37 CALM      30.28R
GREENWOOD      CLEAR     60  51  72 CALM      30.28R
GREER          CLEAR     62  45  53 CALM      30.27R
ROCK HILL      CLEAR     54  45  71 CALM      30.29R
CHESTER        CLEAR     61  41  48 CALM      30.28R
LAURENS        CLEAR     57  52  82 E5        30.27R


...CENTRAL SOUTH CAROLINA...

CITY           SKY/WX    TMP DP  RH WIND       PRES   REMARKS
COLUMBIA APT   CLEAR     64  51  62 SW3       30.26R
COLUMBIA OWENS CLEAR     65  48  54 CALM      30.27R
DARLINGTON     CLEAR     61  52  72 CALM      30.29R
FLORENCE       CLEAR     64  49  57 N6        30.27R
MCENTIRE ANGB  CLEAR     65  45  48 NE6       30.27R
ORANGEBURG     CLEAR     64  56  75 CALM      30.26R
SUMTER SHAW    CLEAR     63  48  58 NE5       30.26R
NEWBERRY       CLEAR     61  45  55 E5        30.30R
AIKEN          FAIR      61  48  63 CALM      30.30R
BARNWELL       FAIR      64  54  68 CALM      30.26R
MANNING        FAIR      59  37  44 CALM      30.27R
CAMDEN         FAIR      63  45  51 CALM      30.28R
LANCASTER      CLEAR     57  50  77 CALM      30.28R
WINNSBORO      CLEAR     63  45  51 E5        30.27R


...EASTERN AND COASTAL SOUTH CAROLINA...

CITY           SKY/WX    TMP DP  RH WIND       PRES   REMARKS
N MYRTLE BCH   CLEAR     62  59  90 CALM      30.26R
CONWAY         FAIR      59  59 100 CALM      30.27R
MARION         FAIR      59  54  82 CALM      30.28R
HARTSVILLE     FAIR      61  45  55 CALM      30.27R
FLORENCE       CLEAR     64  49  57 N6        30.27R
DARLINGTON     CLEAR     61  52  72 CALM      30.29R
CHARLESTON APT CLEAR     67  59  75 CALM      30.26R
MOUNT PLEASANT FAIR      63  61  94 CALM      30.26R
WALTERBORO     CLEAR     63  57  82 CALM      30.27R
BEAUFORT       CLEAR     69  62  78 CALM      30.25R


...EASTERN GEORGIA...

CITY           SKY/WX    TMP DP  RH WIND       PRES   REMARKS
AUGUSTA BUSH F CLEAR     59  54  83 S5        30.25R
AUGUSTA DANIEL CLEAR     72  49  44 NE7       30.26R
THOMSON        CLEAR     60  58  94 CALM      30.31R
WASHINGTON     FAIR      63  61  94 CALM      30.27R
CLAXTON        FAIR      64  63  94 CALM      30.25R
SYLVANIA       CLEAR     64  60  86 CALM      30.26R
STATESBORO     CLEAR     61  61  99 CALM      30.25R
SAVANNAH       CLEAR     68  61  78 E3        30.25R


...SOUTHERN NORTH CAROLINA...

CITY           SKY/WX    TMP DP  RH WIND       PRES   REMARKS
CHARLOTTE      CLEAR     59  41  51 CALM      30.29R
MONROE         CLEAR     57  46  66 CALM      30.27R
WADESBORO      CLEAR     56  53  89 CALM      30.28R
ROCKINGHAM     CLEAR     62  46  56 CALM      30.28R
RUTHERFORDTON  CLEAR     65  40  40 N3        30.30R
ASHEVILLE      CLEAR     60  37  42 N8        30.33R

$$


USA.gov is the U.S. government's official web portal to all federal, state and local government web resources and services.